Flag for U.S.A. Weather past 2 weeks in Duluth, Minnesota, U.S.A.

Now
30 °F

Ice fog.


Feels Like: 30 °F
Forecast: 35 / 54 °F
Wind: No wind

Location: Sky Harbor Airport


UV Index: 5 (Moderate)

Visibility: 5 mi


Pressure: 30.03 "Hg

Humidity: 93%

Dew point: 28 °F

Location of DuluthLocation

Historic Weather in Duluth

°F

Duluth temperature yesterday

Maximum temperature yesterday: 36 °F (at 5:14 PM)
Minimum temperature yesterday: 30 °F (at 10:54 PM)
Average temperature yesterday: 33 °F

Past Weeks' High & Low Weather Summary

 TemperatureHumidityPressure
High57 °F (Apr 9, 5:33 PM)100% (Apr 7, 3:13 AM)30.43 "Hg (Apr 7, 3:13 AM)
Low18 °F (Apr 15, 5:34 AM)21% (Apr 15, 3:53 PM)29.37 "Hg (Apr 9, 9:54 PM)
Average35 °F72%29.98 "Hg
* Reported Apr 5 1:13 AM — Apr 20 1:33 AM, Duluth, Weather by CustomWeather, © 2014

Note: Actual official high and low records may vary slightly from our data, if they occured in-between our weather recording intervals... More about our weather records

Advertising

Historic Weather Conditions — Data for Previous 24 hours

 ConditionsComfort  
Time TempWeatherWind HumidityBarometerVisibility
1:33 AM
Apr 20
30 °FClear.No wind93%30.04 "Hg7 mi
1:13 AM30 °FClear.No wind93%30.04 "Hg7 mi
12:54 AM30 °FClear.No wind93%30.04 "Hg10 mi
12:33 AM30 °FClear.No wind93%30.03 "Hg10 mi
12:13 AM30 °FClear.No wind93%30.03 "Hg10 mi
11:54 PM
Apr 19
30 °FClear.No wind93%30.03 "Hg10 mi
11:33 PM30 °FClear.No wind93%30.04 "Hg10 mi
11:13 PM30 °FClear.No wind93%30.04 "Hg10 mi
10:54 PM30 °FClear.No wind93%30.04 "Hg10 mi
10:33 PM32 °FClear.No wind93%30.04 "Hg10 mi
10:13 PM32 °FClear.No wind93%30.04 "Hg10 mi
9:53 PM32 °FClear.No wind93%30.04 "Hg10 mi
9:33 PM32 °FClear.No wind93%30.04 "Hg10 mi
9:13 PM32 °FClear.No wind93%30.04 "Hg10 mi
8:54 PM32 °FSunny.No wind93%30.04 "Hg10 mi
8:33 PM32 °FSunny.No wind93%30.04 "Hg10 mi
8:13 PM32 °FSunny.No wind93%30.04 "Hg10 mi
7:53 PM34 °FSunny.No wind87%30.04 "Hg10 mi
7:34 PM34 °FScattered clouds.No wind87%30.04 "Hg10 mi
7:13 PM34 °FMostly cloudy.No wind87%30.04 "Hg10 mi
6:53 PM34 °FOvercast.No wind87%30.04 "Hg10 mi
6:34 PM34 °FPartly sunny.No wind87%30.04 "Hg10 mi
6:13 PM34 °FSunny.No wind87%30.04 "Hg10 mi
5:54 PM34 °FSunny.No wind87%30.04 "Hg10 mi
5:33 PM36 °FSunny.No wind87%30.03 "Hg10 mi
5:14 PM36 °FScattered clouds.No wind87%30.04 "Hg10 mi
4:53 PM34 °FScattered clouds.No wind93%30.05 "Hg10 mi
4:33 PM34 °FPartly sunny.No wind93%30.05 "Hg10 mi
4:13 PM34 °FOvercast.No wind93%30.05 "Hg10 mi
3:53 PM34 °FOvercast.No wind93%30.05 "Hg10 mi
3:34 PM34 °FOvercast.No wind93%30.05 "Hg10 mi
3:13 PM34 °FOvercast.No wind93%30.05 "Hg10 mi
2:53 PM34 °FOvercast.No wind87%30.06 "Hg10 mi
2:34 PM34 °FOvercast.No wind93%30.06 "Hg10 mi
2:13 PM34 °FOvercast.No wind87%30.07 "Hg10 mi
1:54 PM34 °FOvercast.No wind87%30.06 "Hg10 mi
1:33 PM34 °FLight rain. Overcast.No wind87%30.08 "Hg10 mi
1:14 PM34 °FLight rain. Broken clouds.6 mph87%30.08 "Hg10 mi
12:53 PM34 °FDrizzle. Broken clouds.No wind87%30.09 "Hg10 mi
12:33 PM34 °FScattered clouds.5 mph87%30.08 "Hg10 mi
12:14 PM34 °FOvercast.13 mph93%30.09 "Hg10 mi
11:53 AM34 °FOvercast.18 mph93%30.09 "Hg10 mi
11:33 AM34 °FOvercast.20 mph93%30.09 "Hg10 mi
11:13 AM34 °FOvercast.18 mph93%30.10 "Hg10 mi
10:53 AM34 °FOvercast.18 mph87%30.11 "Hg10 mi
10:34 AM34 °FOvercast.17 mph87%30.12 "Hg10 mi
10:13 AM34 °FOvercast.15 mph87%30.13 "Hg10 mi
9:54 AM34 °FOvercast.14 mph87%30.13 "Hg10 mi
9:33 AM34 °FLight rain. Overcast.13 mph87%30.14 "Hg7 mi
9:13 AM34 °FOvercast.9 mph87%30.16 "Hg10 mi
8:54 AM34 °FLight rain. Overcast.13 mph87%30.16 "Hg10 mi
8:33 AM34 °FLight rain. Overcast.10 mph87%30.17 "Hg7 mi
8:13 AM34 °FLight rain. Overcast.14 mph87%30.16 "Hg10 mi
7:54 AM34 °FLight rain. Overcast.13 mph87%30.17 "Hg10 mi
7:33 AM34 °FLight rain. Overcast.13 mph87%30.18 "Hg10 mi
7:13 AM34 °FLight rain. Overcast.14 mph87%30.18 "Hg7 mi
6:54 AM34 °FLight rain. Overcast.12 mph87%30.18 "Hg10 mi
6:33 AM34 °FLight rain. Overcast.15 mph87%30.17 "Hg10 mi
6:13 AM34 °FOvercast.16 mph87%30.16 "Hg10 mi
5:54 AM34 °FOvercast.14 mph87%30.17 "Hg10 mi
5:33 AM34 °FOvercast.13 mph87%30.20 "Hg10 mi
5:13 AM34 °FOvercast.13 mph87%30.20 "Hg10 mi
4:54 AM34 °FOvercast.22 mph87%30.18 "Hg10 mi
4:33 AM34 °FOvercast.15 mph87%30.23 "Hg10 mi
4:13 AM34 °FOvercast.15 mph87%30.25 "Hg10 mi
3:54 AM34 °FOvercast.17 mph87%30.26 "Hg10 mi
3:33 AM34 °FOvercast.17 mph81%30.27 "Hg10 mi
3:13 AM34 °FOvercast.15 mph81%30.29 "Hg10 mi
2:54 AM32 °FOvercast.15 mph87%30.29 "Hg10 mi
2:33 AM32 °FOvercast.17 mph87%30.28 "Hg10 mi
2:14 AM32 °FOvercast.16 mph87%30.29 "Hg10 mi
Weather by CustomWeather, © 2014

See weather overview